[[{"header":{"parameterUnit":"m.s-1","parameterCategory":1,"la1":30.2991,"la2":30.254,"lo1":-89.0895,"lo2":-89.0444,"dy":0.0017,"dx":0.0017,"nx":28,"ny":28,"refTime":"2023-07-23T09:00:00:Z","depth":0,"parameterNumber":2,"parameterNumberName":"U-component_of_WINDS"},"data":[0,0,0,0,0,0,0,0,0,0,0,0,0,0,0,0,0,0,0,0,0,0,0,0,0,0,0,0,0,0,0,0,0,0,0,0,0,0,0,0,0,0,0,0,0,0,0,0,0,0,0,0,0,0,0,0,0,0,1.2838,1.2839,0,1.2949,1.295,1.2951,1.2912,1.291,1.2908,1.2905,1.3023,1.3028,1.3034,0,0,0,0,0,0,0,0,0,0,0,0,0,1.2599,1.2604,1.2838,1.2839,1.2841,1.2948,1.295,1.2952,1.2913,1.291,1.2907,1.2904,1.3021,1.3028,1.3034,0,0,0,0,0,0,0,0,0,0,0,0,0,1.2706,1.2605,1.2838,1.2834,1.2835,1.2948,1.295,1.2952,1.2914,1.291,1.2906,1.2903,1.3019,1.3027,1.3035,1.3159,0,0,1.306,1.3064,0,0,0,0,0,0,0,0,1.27,1.2715,1.2834,1.2835,1.2836,1.2913,1.2909,1.3022,1.2914,1.2884,1.2905,1.2901,1.299,1.3,1.3029,1.3165,1.317,1.3061,1.3066,1.3069,1.3071,0,0,0,0,0,0,0,1.2692,1.271,1.2882,1.2835,1.2837,1.2829,1.284,1.293,1.2956,1.2886,1.2884,1.2897,1.299,1.3021,1.3031,1.3172,1.306,1.3068,1.3073,1.3076,1.3417,1.3421,0,0,0,0,0,0,1.2684,1.2704,1.2878,1.2885,1.2757,1.2837,1.2849,1.2892,1.2955,1.2961,1.29,1.2895,1.3009,1.3022,1.3036,1.3186,1.3069,1.3077,1.3081,1.3413,1.3418,1.3423,0,0,0,0,0,0,1.2679,1.27,1.2874,1.2794,1.2815,1.2845,1.2893,1.2896,1.2928,1.2966,1.2971,1.2927,1.3007,1.3024,1.3129,1.319,1.308,1.3088,1.3408,1.3415,1.342,1.3488,0,0,0,0,0,0,1.2672,1.2698,1.2744,1.2795,1.282,1.2964,1.2897,1.2901,1.2941,1.2935,1.2992,1.2998,1.3005,1.3117,1.3137,1.3199,1.3094,1.3403,1.3411,1.3418,1.348,1.3495,1.3509,0,0,0,0,0,1.2664,1.2759,1.2747,1.2768,1.2878,1.2967,1.2982,1.2986,1.2946,1.2994,1.3019,1.2996,1.318,1.3128,1.315,1.3215,1.3399,1.3409,1.3418,1.3474,1.3492,1.3508,0,0,0,0,0,0,1.2716,1.2766,1.2752,1.2867,1.2913,1.2961,1.302,1.3006,1.3065,1.3058,1.3062,1.3076,1.3184,1.321,1.3152,1.334,1.3284,1.3298,1.3319,1.3337,1.3351,1.3342,1.3101,0,0,0,0,0,1.274,1.2807,1.2848,1.2946,1.2969,1.2991,1.303,1.303,1.3079,1.3099,1.3131,1.318,1.3249,1.3294,1.336,1.3484,1.3497,1.354,1.3554,1.3566,1.3578,1.3647,1.3667,1.3454,1.3453,1.3453,0,0,1.2792,1.2828,1.287,1.2957,1.2993,1.3064,1.3008,1.3085,1.3139,1.3111,1.3211,1.3237,1.3293,1.3409,1.3461,1.3434,1.364,1.3578,1.3587,1.3593,1.3659,1.3679,1.3697,1.346,1.3459,1.3458,0,0,1.2923,1.2956,1.3041,1.3078,1.3133,1.3147,1.3168,1.3218,1.3234,1.3335,1.3316,1.3381,1.3499,1.354,1.3576,1.3725,1.3707,1.3746,1.382,1.3888,1.3905,1.392,1.3974,1.3993,1.3758,1.3759,1.3759,0,1.2981,1.3085,1.3087,1.3167,1.3206,1.3184,1.3271,1.3308,1.3382,1.341,1.3379,1.3527,1.3563,1.3689,1.3725,1.3755,1.378,1.3739,1.3902,1.3917,1.3931,1.3982,1.4003,1.3763,1.3762,1.3762,1.3762,0,1.3155,1.3228,1.3291,1.3361,1.3408,1.3491,1.3508,1.3555,1.3552,1.357,1.3675,1.3717,1.3791,1.3821,1.3818,1.3947,1.3929,1.39,1.3843,1.3956,1.4004,1.4024,1.3769,1.3768,1.3766,1.3765,0,0,1.332,1.3391,1.3414,1.3447,1.3507,1.3564,1.3648,1.3719,1.376,1.3813,1.3884,1.3985,1.3959,1.4,1.4002,1.4062,1.4178,1.4026,1.4027,1.4053,1.4324,1.4345,1.4368,1.4167,1.4171,1.4174,1.4319,0,1.3456,1.36,1.3605,1.3737,1.3806,1.3787,1.386,1.3905,1.3925,1.3988,1.4011,1.4083,1.4042,1.4067,1.4125,1.4152,1.4233,1.4141,1.4235,1.4238,1.4221,1.4393,1.4416,1.4551,1.4338,1.4342,1.4344,0,1.3633,1.369,1.3829,1.388,1.3909,1.3974,1.4041,1.4101,1.4153,1.4164,1.4211,1.4205,1.4292,1.4233,1.4354,1.4292,1.4331,1.435,1.4356,1.4365,1.4298,1.4407,1.4594,1.4615,1.4374,1.4371,1.4369,0,1.374,1.3852,1.395,1.3978,1.404,1.4087,1.4115,1.4164,1.4207,1.4266,1.4295,1.4364,1.4402,1.4457,1.447,1.4426,1.4593,1.4534,1.4605,1.4605,1.4641,1.4638,1.4837,1.4666,1.4665,1.4665,1.4665,0,1.3891,1.3977,1.3999,1.4059,1.4156,1.4162,1.4259,1.4284,1.4328,1.4394,1.4382,1.4445,1.4459,1.4526,1.4538,1.4637,1.4655,1.4667,1.4669,1.4668,1.4667,1.4693,1.4685,1.467,1.4669,1.4668,1.4667,0,1.4027,1.4045,1.415,1.4201,1.4215,1.4285,1.4328,1.4388,1.4406,1.4491,1.4511,1.4542,1.4619,1.4639,1.4732,1.474,1.4858,1.4851,1.484,1.4839,1.4909,1.4903,1.5132,1.5163,1.4972,1.4973,1.4975,0,1.4122,1.4188,1.4245,1.4288,1.4318,1.4388,1.4432,1.4442,1.4488,1.4554,1.4606,1.4682,1.4743,1.4869,1.4901,1.4972,1.4967,1.5043,1.4978,1.4975,1.4969,1.4965,1.4972,1.5055,1.5057,1.5059,1.506,0,1.4289,1.4295,1.4358,1.4425,1.4478,1.4531,1.4583,1.4619,1.4637,1.469,1.4769,1.4817,1.4912,1.4988,1.5061,1.5092,1.508,1.508,1.5101,1.51,1.5091,1.5098,1.4873,1.5075,1.5073,1.5072,1.5072,1.5071,1.4408,1.4466,1.4515,1.4587,1.4626,1.4675,1.4733,1.4759,1.4825,1.4902,1.4905,1.4991,1.5044,1.514,1.5176,1.5244,1.5222,1.5251,1.5258,1.5265,1.5272,1.508,1.5258,1.5257,1.5257,1.5257,1.5256,0,1.4575,1.4606,1.4672,1.4743,1.48,1.4783,1.4839,1.4888,1.4964,1.5014,1.5074,1.5166,1.5241,1.5279,1.5353,1.5401,1.5398,1.5421,1.5417,1.5425,1.5288,1.5263,1.5422,1.5422,1.5422,1.5422,1.5422,1.5422,1.4668,1.4766,1.4778,1.4896,1.4927,1.501,1.5044,1.509,1.513,1.5232,1.5294,1.5318,1.5364,1.5442,1.551,1.5519,1.5548,1.5574,1.558,1.5451,1.5434,1.5418,1.5395,1.558,1.558,1.5712,1.5713,1.5714]},{"header":{"parameterUnit":"m.s-1","parameterCategory":1,"la1":30.2991,"la2":30.254,"lo1":-89.0895,"lo2":-89.0444,"dy":0.0017,"dx":0.0017,"nx":28,"ny":28,"refTime":"2023-07-23T09:00:00:Z","depth":0,"parameterNumber":3,"parameterNumberName":"V-component_of_WINDS"},"data":[0,0,0,0,0,0,0,0,0,0,0,0,0,0,0,0,0,0,0,0,0,0,0,0,0,0,0,0,0,0,0,0,0,0,0,0,0,0,0,0,0,0,0,0,0,0,0,0,0,0,0,0,0,0,0,0,0,0,-1.1431,-1.1431,0,-1.1392,-1.1392,-1.1391,-1.1434,-1.1435,-1.1437,-1.1438,-1.1395,-1.1393,-1.139,0,0,0,0,0,0,0,0,0,0,0,0,0,-1.1541,-1.1538,-1.1431,-1.1431,-1.143,-1.1392,-1.1392,-1.1391,-1.1433,-1.1435,-1.1437,-1.1439,-1.1396,-1.1393,-1.139,0,0,0,0,0,0,0,0,0,0,0,0,0,-1.1496,-1.1538,-1.1431,-1.1447,-1.1448,-1.1392,-1.1392,-1.1391,-1.1433,-1.1435,-1.1438,-1.144,-1.1397,-1.1393,-1.1389,-1.1316,0,0,-1.1377,-1.1375,0,0,0,0,0,0,0,0,-1.1499,-1.1492,-1.1445,-1.1446,-1.1447,-1.142,-1.1415,-1.1366,-1.1432,-1.1438,-1.1439,-1.1441,-1.1401,-1.1397,-1.1385,-1.1314,-1.1312,-1.1377,-1.1374,-1.1373,-1.1372,0,0,0,0,0,0,0,-1.1502,-1.1494,-1.1416,-1.1444,-1.1445,-1.1455,-1.1452,-1.1405,-1.1407,-1.1438,-1.1441,-1.1436,-1.1402,-1.1388,-1.1384,-1.1311,-1.1377,-1.1373,-1.1371,-1.1369,-1.118,-1.1178,0,0,0,0,0,0,-1.1503,-1.1496,-1.1417,-1.1415,-1.1479,-1.1451,-1.1447,-1.1426,-1.1407,-1.1407,-1.1434,-1.1438,-1.1394,-1.1388,-1.1382,-1.1296,-1.1373,-1.1369,-1.1367,-1.1183,-1.118,-1.1177,0,0,0,0,0,0,-1.1506,-1.1496,-1.1419,-1.1456,-1.1447,-1.1447,-1.1423,-1.1424,-1.141,-1.1404,-1.1404,-1.142,-1.1396,-1.1388,-1.1333,-1.1295,-1.1367,-1.1364,-1.1186,-1.1182,-1.1178,-1.1123,0,0,0,0,0,0,-1.1509,-1.1497,-1.1469,-1.1455,-1.1445,-1.137,-1.1421,-1.1422,-1.1404,-1.1409,-1.1391,-1.139,-1.1397,-1.1338,-1.1329,-1.1291,-1.136,-1.1189,-1.1184,-1.1179,-1.1128,-1.1117,-1.1108,0,0,0,0,0,-1.1512,-1.1454,-1.1467,-1.1457,-1.1411,-1.1368,-1.1362,-1.1372,-1.14,-1.1372,-1.1369,-1.1391,-1.1301,-1.1332,-1.1322,-1.1283,-1.1192,-1.1186,-1.118,-1.1132,-1.112,-1.1109,0,0,0,0,0,0,-1.1461,-1.1452,-1.1467,-1.1402,-1.1386,-1.1375,-1.134,-1.1357,-1.1331,-1.1337,-1.135,-1.1345,-1.1287,-1.1279,-1.1314,-1.1211,-1.1251,-1.1243,-1.1219,-1.1206,-1.1197,-1.12,-1.1357,0,0,0,0,0,-1.1443,-1.1409,-1.1403,-1.1346,-1.1337,-1.134,-1.1321,-1.1331,-1.1314,-1.1306,-1.1299,-1.128,-1.1248,-1.1227,-1.1197,-1.1127,-1.1124,-1.1095,-1.1085,-1.1077,-1.107,-1.1034,-1.1021,-1.1157,-1.1157,-1.1158,0,0,-1.1403,-1.1394,-1.1372,-1.1336,-1.1324,-1.1289,-1.1334,-1.1294,-1.1268,-1.13,-1.1248,-1.1242,-1.1222,-1.116,-1.1132,-1.1151,-1.1032,-1.107,-1.1063,-1.106,-1.1027,-1.1014,-1.1002,-1.1153,-1.1154,-1.1155,0,0,-1.1314,-1.1304,-1.1257,-1.1244,-1.1226,-1.1229,-1.1217,-1.1204,-1.1202,-1.115,-1.1174,-1.1143,-1.1087,-1.1073,-1.1058,-1.0965,-1.0984,-1.0955,-1.0904,-1.0869,-1.0858,-1.0849,-1.0817,-1.0805,-1.0948,-1.0947,-1.0947,0,-1.1267,-1.1216,-1.1229,-1.1189,-1.1173,-1.1202,-1.1154,-1.1141,-1.1113,-1.1101,-1.1124,-1.1056,-1.1045,-1.098,-1.0958,-1.0945,-1.0932,-1.0957,-1.0859,-1.0849,-1.0841,-1.081,-1.0798,-1.0944,-1.0944,-1.0945,-1.0945,0,-1.116,-1.1124,-1.1088,-1.1063,-1.1043,-1.0998,-1.1005,-1.0982,-1.0994,-1.0994,-1.0941,-1.0929,-1.0898,-1.0883,-1.0893,-1.082,-1.0833,-1.0857,-1.0897,-1.0824,-1.0796,-1.0784,-1.0939,-1.094,-1.0941,-1.0942,0,0,-1.1037,-1.1021,-1.1008,-1.0998,-1.0981,-1.0953,-1.091,-1.0881,-1.0862,-1.0842,-1.0807,-1.076,-1.0783,-1.0766,-1.0775,-1.0744,-1.0673,-1.0772,-1.0772,-1.0755,-1.0593,-1.0576,-1.0563,-1.0686,-1.0684,-1.0682,-1.0595,0,-1.0949,-1.0877,-1.0888,-1.0818,-1.0785,-1.0813,-1.0776,-1.0762,-1.0761,-1.0733,-1.0731,-1.0698,-1.073,-1.072,-1.0691,-1.0688,-1.0641,-1.0694,-1.0653,-1.0652,-1.0658,-1.0548,-1.0529,-1.0448,-1.0584,-1.0582,-1.0581,0,-1.0836,-1.0814,-1.0741,-1.0731,-1.0718,-1.0685,-1.066,-1.0633,-1.0617,-1.0618,-1.0601,-1.0616,-1.0573,-1.0614,-1.0556,-1.0592,-1.0576,-1.0572,-1.057,-1.0567,-1.0612,-1.0542,-1.0422,-1.041,-1.0564,-1.0565,-1.0566,0,-1.0755,-1.0707,-1.0658,-1.0648,-1.0634,-1.0611,-1.0604,-1.0591,-1.0573,-1.0551,-1.054,-1.0512,-1.0497,-1.0476,-1.0483,-1.0512,-1.0424,-1.0465,-1.0424,-1.0424,-1.0405,-1.0406,-1.0281,-1.0393,-1.0393,-1.0393,-1.0393,0,-1.0656,-1.061,-1.0622,-1.0591,-1.0542,-1.0555,-1.0505,-1.0501,-1.049,-1.0459,-1.0481,-1.0451,-1.0462,-1.0433,-1.0439,-1.0391,-1.0383,-1.0384,-1.0386,-1.0382,-1.0382,-1.0372,-1.0378,-1.039,-1.0391,-1.0391,-1.0392,0,-1.0557,-1.0563,-1.0511,-1.0503,-1.05,-1.0464,-1.0457,-1.0428,-1.043,-1.0391,-1.0382,-1.0384,-1.0352,-1.0357,-1.032,-1.0324,-1.0264,-1.0272,-1.027,-1.0272,-1.0231,-1.0235,-1.0096,-1.0079,-1.0201,-1.02,-1.0199,0,-1.0493,-1.046,-1.0449,-1.043,-1.0422,-1.0392,-1.0375,-1.0387,-1.0368,-1.0348,-1.0322,-1.0292,-1.0269,-1.0215,-1.0213,-1.0185,-1.0194,-1.0147,-1.019,-1.0188,-1.0194,-1.0197,-1.0194,-1.0139,-1.0137,-1.0136,-1.0135,0,-1.0381,-1.0386,-1.0361,-1.0337,-1.0316,-1.0297,-1.028,-1.0264,-1.0274,-1.0252,-1.022,-1.0202,-1.0166,-1.0135,-1.011,-1.0102,-1.012,-1.0122,-1.0111,-1.0107,-1.0108,-1.0108,-1.0248,-1.0125,-1.0126,-1.0127,-1.0127,-1.0128,-1.0299,-1.027,-1.0259,-1.023,-1.0219,-1.0204,-1.0177,-1.0176,-1.015,-1.0122,-1.0131,-1.0094,-1.008,-1.0048,-1.0038,-1.001,-1.0027,-1.0011,-1.0007,-1.0003,-0.9999,-1.0112,-1.0005,-1.0005,-1.0006,-1.0006,-1.0006,0,-1.0188,-1.0183,-1.0156,-1.0133,-1.0111,-1.0131,-1.0114,-1.0094,-1.0062,-1.0048,-1.0025,-0.9989,-0.996,-0.9956,-0.9929,-0.9907,-0.9915,-0.9899,-0.9902,-0.99,-0.9985,-0.9997,-0.9894,-0.9894,-0.9894,-0.9894,-0.9894,-0.9894,-1.0128,-1.0082,-1.0086,-1.0035,-1.0029,-0.9995,-0.9983,-0.9969,-0.9959,-0.9917,-0.9894,-0.9892,-0.9882,-0.9855,-0.9829,-0.9829,-0.9818,-0.98,-0.9803,-0.9882,-0.9894,-0.9904,-0.9916,-0.9797,-0.9797,-0.9721,-0.972,-0.9719]}]]